sat.trackr.live / text

‹ back to catalog

MESON-1

NORAD 59131 · 2024-043AK

PAYLOAD ACTIVE UNKNOWN

§ Identity

Operator
Country
US
Launch date
2024-03-04
Launch site
AFWTR
Launch vehicle
Mass (kg)
RCS (m²)

External: N2YO · Heavens-Above · Gunter

§ Orbital elements

Epoch: 2026-09-22T10:10:26.046048Z

Period
93.99 min
Inclination
97.5778°
Eccentricity
0.0008499
Mean motion
15.32045865 rev/d
Perigee alt
463.9 km
Apogee alt
475.5 km
Semi-major
6,847.8 km
B*
1.3747e-4
RAAN
45.6395°
Arg perigee
254.1432°
Mean anomaly
105.8873°
Rev number
14,196

§ Raw data

MESON-11 59131U 24043AK  26265.42391257  .00004175  00000+0  13747-3 0  99972 59131  97.5778  45.6395 0008499 254.1432 105.8873 15.32045865141969

JSON: /api/v1/satellites/59131 · /tle

For live sub-satellite position, see the globe view (requires WebGL).

§ Visibility from observer

Set your observer location to see the next 7 days of passes ≥ 10°. The values pass through the URL so the page stays shareable.

No JS? Fill the form by hand. The geolocation button needs JavaScript.